TimeAST,TemperatureF,Dew PointF,Humidity,Sea Level PressureIn,VisibilityMPH,Wind Direction,Wind SpeedMPH,Gust SpeedMPH,PrecipitationIn,Events,Conditions,WindDirDegrees,DateUTC
12:00 AM,22.3,18.1,84,30.38,-9999.0,SW,1.2,-,N/A,,Unknown,220,2013-02-23 04:00:00
1:00 AM,22.5,18.7,85,30.39,-9999.0,Calm,Calm,-,N/A,,Unknown,0,2013-02-23 05:00:00
2:00 AM,22,18,80,30.38,,Calm,Calm,,,,,,2013-02-23 06:00:00
2:00 AM,21.7,18.5,87,30.38,-9999.0,Calm,Calm,-,N/A,,Unknown,0,2013-02-23 06:00:00
3:00 AM,21.0,17.2,85,30.38,-9999.0,Calm,Calm,-,N/A,,Unknown,0,2013-02-23 07:00:00
4:00 AM,20.8,16.7,84,30.37,-9999.0,East,3.5,-,N/A,,Unknown,80,2013-02-23 08:00:00
5:00 AM,19,16,81,30.36,,ENE,5.8,,,,,70,2013-02-23 09:00:00
5:00 AM,19.4,15.6,85,30.36,-9999.0,ENE,5.8,-,N/A,,Unknown,70,2013-02-23 09:00:00
6:00 AM,17.8,15.1,89,30.35,-9999.0,ENE,3.5,-,N/A,,Unknown,60,2013-02-23 10:00:00
7:00 AM,16.7,14.4,91,30.36,-9999.0,ENE,3.5,-,N/A,,Unknown,60,2013-02-23 11:00:00
8:00 AM,18,15,81,30.36,,ENE,3.5,,,,,70,2013-02-23 12:00:00
8:00 AM,17.8,14.7,88,30.36,-9999.0,ENE,3.5,-,N/A,,Unknown,70,2013-02-23 12:00:00
9:00 AM,21.6,14.5,74,30.37,-9999.0,East,2.3,-,N/A,,Unknown,90,2013-02-23 13:00:00
10:00 AM,25.3,14.5,64,30.35,-9999.0,East,3.5,-,N/A,,Unknown,100,2013-02-23 14:00:00
11:00 AM,28,15,44,30.32,,ENE,3.5,,,,,70,2013-02-23 15:00:00
11:00 AM,28.2,14.7,57,30.32,-9999.0,ENE,3.5,-,N/A,,Unknown,70,2013-02-23 15:00:00
12:00 PM,30.4,14.4,51,30.30,-9999.0,SE,2.3,-,N/A,,Unknown,130,2013-02-23 16:00:00
1:00 PM,31.6,17.2,55,30.28,-9999.0,SSE,2.3,-,N/A,,Unknown,150,2013-02-23 17:00:00
2:00 PM,34,15,33,30.25,,SSE,2.3,,,,,150,2013-02-23 18:00:00
2:00 PM,34.0,15.4,47,30.25,-9999.0,SSE,2.3,-,N/A,,Unknown,150,2013-02-23 18:00:00
3:00 PM,31.5,18.0,57,30.23,-9999.0,SE,3.5,-,N/A,,Unknown,140,2013-02-23 19:00:00
4:00 PM,33.6,16.9,50,30.21,-9999.0,East,5.8,-,N/A,,Unknown,100,2013-02-23 20:00:00
5:00 PM,30,19,50,30.21,,ESE,5.8,,,,,110,2013-02-23 21:00:00
5:00 PM,29.8,18.7,63,30.21,-9999.0,ESE,5.8,-,N/A,,Unknown,110,2013-02-23 21:00:00
6:00 PM,28.4,20.1,71,30.22,-9999.0,ESE,5.8,-,N/A,,Unknown,120,2013-02-23 22:00:00
7:00 PM,27.7,20.5,74,30.19,-9999.0,ESE,5.8,-,N/A,,Unknown,110,2013-02-23 23:00:00
8:00 PM,27,21,68,30.18,,ESE,4.6,,,,,120,2013-02-24 00:00:00
8:00 PM,27.1,20.7,77,30.18,-9999.0,ESE,4.6,-,N/A,,Unknown,120,2013-02-24 00:00:00
9:00 PM,25.2,20.1,81,30.17,-9999.0,East,2.3,-,N/A,,Unknown,90,2013-02-24 01:00:00
10:00 PM,24.1,20.1,85,30.16,-9999.0,East,2.3,-,N/A,,Unknown,90,2013-02-24 02:00:00
11:00 PM,22,19,85,30.14,,NE,2.3,,,,,50,2013-02-24 03:00:00
11:00 PM,21.9,19.4,90,30.14,-9999.0,NE,2.3,-,N/A,,Unknown,50,2013-02-24 03:00:00